time, Switch, Flow(0), Analog(2)
yyyy/mm/dd HH:MM:SS.fff, True=FILTERED|False=TOTAL, L/min, V
2023/06/24 11:00:03.313, True, 4.311, 0.120317
2023/06/24 11:00:03.809, True, 4.043, 0.120775
2023/06/24 11:00:04.313, True, 2.984, 0.124285
2023/06/24 11:00:04.817, True, 1.990, 0.121691
2023/06/24 11:00:05.321, True, 1.989, 0.122225
2023/06/24 11:00:05.817, True, 2.022, 0.120775
2023/06/24 11:00:06.321, True, 1.990, 0.123064
2023/06/24 11:00:06.825, True, 1.990, 0.122454
2023/06/24 11:00:07.320, True, 2.022, 0.121614
2023/06/24 11:00:07.825, True, 1.990, 0.124361
2023/06/24 11:00:08.321, True, 1.685, 0.120012
2023/06/24 11:00:08.825, True, 1.990, 0.124361
2023/06/24 11:00:09.329, True, 1.658, 0.121233
2023/06/24 11:00:09.825, True, 2.022, 0.123064
2023/06/24 11:00:10.329, True, 1.990, 0.121996
2023/06/24 11:00:10.833, True, 1.990, 0.122530
2023/06/24 11:00:11.329, True, 2.021, 0.123827
2023/06/24 11:00:11.833, True, 1.990, 0.123217
2023/06/24 11:00:12.337, True, 1.989, 0.121920
2023/06/24 11:00:12.833, True, 2.022, 0.123980
2023/06/24 11:00:13.337, True, 1.990, 0.121309
2023/06/24 11:00:13.833, True, 2.022, 0.122911
2023/06/24 11:00:14.337, True, 1.658, 0.121233
2023/06/24 11:00:14.841, True, 1.990, 0.120623
2023/06/24 11:00:15.337, True, 2.023, 0.122835
2023/06/24 11:00:15.841, True, 2.323, 0.123369
2023/06/24 11:00:16.345, True, 1.987, 0.122301
2023/06/24 11:00:16.841, True, 1.685, 0.122148
2023/06/24 11:00:17.345, True, 1.990, 0.122683
2023/06/24 11:00:17.849, True, 1.990, 0.120012
2023/06/24 11:00:18.345, True, 2.022, 0.123522
2023/06/24 11:00:18.849, True, 1.989, 0.122072
2023/06/24 11:00:19.353, True, 1.658, 0.122072
2023/06/24 11:00:19.849, True, 2.022, 0.121386
2023/06/24 11:00:20.353, True, 1.989, 0.121920
2023/06/24 11:00:20.857, True, 1.990, 0.124056
2023/06/24 11:00:21.353, True, 1.685, 0.122835
2023/06/24 11:00:21.857, True, 1.989, 0.123445
2023/06/24 11:00:22.361, True, 1.658, 0.121843
2023/06/24 11:00:22.857, True, 2.021, 0.122530
2023/06/24 11:00:23.361, True, 1.990, 0.122454
2023/06/24 11:00:23.865, True, 1.989, 0.119936
2023/06/24 11:00:24.361, True, 2.022, 0.123217
2023/06/24 11:00:24.865, True, 1.990, 0.122301
2023/06/24 11:00:25.368, True, 1.658, 0.122683
2023/06/24 11:00:25.865, True, 2.022, 0.122148
2023/06/24 11:00:26.369, True, 1.990, 0.123598
2023/06/24 11:00:26.873, True, 1.990, 0.123445
2023/06/24 11:00:27.369, True, 2.022, 0.123522
2023/06/24 11:00:27.873, True, 1.991, 0.123445
2023/06/24 11:00:28.377, True, 1.989, 0.122225
2023/06/24 11:00:28.873, True, 2.022, 0.122377
2023/06/24 11:00:29.376, True, 1.658, 0.121462
2023/06/24 11:00:29.872, True, 2.022, 0.121309
2023/06/24 11:00:30.377, True, 1.990, 0.122911
2023/06/24 11:00:30.881, True, 1.990, 0.124437
2023/06/24 11:00:31.377, True, 2.022, 0.122225
2023/06/24 11:00:31.881, True, 1.658, 0.123445
2023/06/24 11:00:32.385, True, 1.989, 0.121614
2023/06/24 11:00:32.881, True, 2.022, 0.122148
2023/06/24 11:00:33.385, True, 1.990, 0.122911
2023/06/24 11:00:33.888, True, 1.990, 0.122377
2023/06/24 11:00:34.385, True, 1.685, 0.123217
2023/06/24 11:00:34.889, True, 1.990, 0.121386
2023/06/24 11:00:35.393, True, 1.989, 0.125200
2023/06/24 11:00:35.889, True, 1.688, 0.126650
2023/06/24 11:00:36.393, True, 1.986, 0.123674
2023/06/24 11:00:36.889, True, 2.022, 0.125124
2023/06/24 11:00:37.393, True, 1.990, 0.124361
2023/06/24 11:00:37.897, True, 1.990, 0.124361
2023/06/24 11:00:38.393, True, 2.022, 0.124590
2023/06/24 11:00:38.896, True, 1.660, 0.124819
2023/06/24 11:00:39.401, True, 1.987, 0.126345
2023/06/24 11:00:39.897, True, 2.022, 0.126116
2023/06/24 11:00:40.401, True, 1.990, 0.128176
2023/06/24 11:00:40.905, True, 1.990, 0.126574
2023/06/24 11:00:41.401, True, 2.022, 0.126421
2023/06/24 11:00:41.905, True, 1.989, 0.127031
2023/06/24 11:00:42.409, True, 1.989, 0.128252
2023/06/24 11:00:42.905, True, 2.022, 0.126726
2023/06/24 11:00:43.408, True, 1.658, 0.126574
2023/06/24 11:00:43.913, True, 1.990, 0.127642
2023/06/24 11:00:44.409, True, 2.022, 0.131762
2023/06/24 11:00:44.913, True, 1.990, 0.131914
2023/06/24 11:00:45.416, True, 1.990, 0.129702
2023/06/24 11:00:45.913, True, 2.022, 0.131914
2023/06/24 11:00:46.416, True, 1.990, 0.130312
2023/06/24 11:00:46.912, True, 1.685, 0.131609
2023/06/24 11:00:47.417, True, 1.990, 0.132067
2023/06/24 11:00:47.920, True, 1.991, 0.131685
2023/06/24 11:00:48.425, True, 1.988, 0.130312
2023/06/24 11:00:48.921, True, 1.687, 0.131304
2023/06/24 11:00:49.425, True, 1.987, 0.132830
2023/06/24 11:00:49.929, True, 1.989, 0.132906
2023/06/24 11:00:50.425, True, 2.022, 0.131228
2023/06/24 11:00:50.929, True, 1.990, 0.134051
2023/06/24 11:00:51.433, True, 1.990, 0.132372
2023/06/24 11:00:51.929, True, 1.685, 0.130770
2023/06/24 11:00:52.433, True, 1.990, 0.134279
2023/06/24 11:00:52.929, True, 2.022, 0.132143
2023/06/24 11:00:53.433, True, 1.990, 0.134203
2023/06/24 11:00:53.937, True, 1.990, 0.134966
2023/06/24 11:00:54.433, True, 2.022, 0.133593
2023/06/24 11:00:54.937, True, 1.990, 0.132753
2023/06/24 11:00:55.440, True, 1.990, 0.135500
2023/06/24 11:00:55.937, True, 2.022, 0.133974
2023/06/24 11:00:56.441, True, 1.658, 0.134051
2023/06/24 11:00:56.945, True, 1.990, 0.134051
2023/06/24 11:00:57.441, True, 2.022, 0.132982
2023/06/24 11:00:57.945, True, 1.658, 0.132677
2023/06/24 11:00:58.449, True, 1.990, 0.135195
2023/06/24 11:00:58.945, True, 2.022, 0.135195
2023/06/24 11:00:59.448, True, 1.990, 0.132830
2023/06/24 11:00:59.945, True, 1.685, 0.135805
2023/06/24 11:01:00.449, True, 1.990, 0.134737
2023/06/24 11:01:00.952, True, 1.990, 0.134737
2023/06/24 11:01:01.457, True, 1.989, 0.136797
2023/06/24 11:01:01.953, True, 2.025, 0.133211
2023/06/24 11:01:02.457, True, 1.986, 0.136034
2023/06/24 11:01:02.961, True, 1.658, 0.135653
2023/06/24 11:01:03.457, True, 2.022, 0.132753
2023/06/24 11:01:03.960, True, 2.321, 0.135882
2023/06/24 11:01:04.465, True, 1.658, 0.134356
2023/06/24 11:01:04.961, True, 2.022, 0.135271
2023/06/24 11:01:05.465, True, 1.990, 0.135882
2023/06/24 11:01:05.969, True, 1.990, 0.133593
2023/06/24 11:01:06.465, True, 2.022, 0.134203
2023/06/24 11:01:06.969, True, 1.990, 0.136492
2023/06/24 11:01:07.473, True, 1.990, 0.134813
2023/06/24 11:01:07.969, True, 1.685, 0.134127
2023/06/24 11:01:08.473, True, 2.321, 0.133898
2023/06/24 11:01:08.976, True, 1.660, 0.135195
2023/06/24 11:01:09.472, True, 2.019, 0.134890
2023/06/24 11:01:09.977, True, 1.990, 0.135195
2023/06/24 11:01:10.481, True, 1.990, 0.137102
2023/06/24 11:01:10.976, True, 2.021, 0.136187
2023/06/24 11:01:11.480, True, 1.989, 0.136797
2023/06/24 11:01:11.985, True, 1.989, 0.135729
2023/06/24 11:01:12.480, True, 1.685, 0.135958
2023/06/24 11:01:12.985, True, 2.321, 0.133822
2023/06/24 11:01:13.488, True, 1.658, 0.135958
2023/06/24 11:01:13.984, True, 2.022, 0.133516
2023/06/24 11:01:14.488, True, 1.990, 0.136416
2023/06/24 11:01:14.992, True, 1.990, 0.135882
2023/06/24 11:01:15.488, True, 2.022, 0.134508
2023/06/24 11:01:15.992, True, 1.992, 0.135348
2023/06/24 11:01:16.496, True, 1.987, 0.136263
2023/06/24 11:01:17.000, True, 1.658, 0.133974
2023/06/24 11:01:17.496, True, 2.022, 0.134127
2023/06/24 11:01:17.000, True, 1.990, 0.134813
2023/06/24 11:01:18.504, True, 1.990, 0.135882
2023/06/24 11:01:19.000, True, 2.022, 0.131991
2023/06/24 11:01:19.504, True, 1.992, 0.136187
2023/06/24 11:01:20.009, True, 1.656, 0.133593
2023/06/24 11:01:20.504, True, 2.022, 0.135424
2023/06/24 11:01:21.008, True, 1.990, 0.136187
2023/06/24 11:01:21.512, True, 1.657, 0.134279
2023/06/24 11:01:22.008, True, 2.022, 0.135042
2023/06/24 11:01:22.512, True, 1.989, 0.134737
2023/06/24 11:01:23.016, True, 1.990, 0.134279
2023/06/24 11:01:23.512, True, 1.685, 0.136873
2023/06/24 11:01:24.016, True, 1.990, 0.136034
2023/06/24 11:01:24.512, True, 2.022, 0.134585
2023/06/24 11:01:25.016, True, 2.323, 0.135119
2023/06/24 11:01:25.520, True, 1.657, 0.135729
2023/06/24 11:01:26.016, True, 2.022, 0.133898
2023/06/24 11:01:26.520, True, 1.991, 0.133745
2023/06/24 11:01:27.024, True, 1.988, 0.135195
2023/06/24 11:01:27.520, True, 2.022, 0.133211
2023/06/24 11:01:28.024, True, 1.660, 0.134279
2023/06/24 11:01:28.528, True, 1.986, 0.133974
2023/06/24 11:01:29.024, True, 2.022, 0.131533
2023/06/24 11:01:29.528, True, 1.991, 0.134813
2023/06/24 11:01:30.032, True, 1.991, 0.136416
2023/06/24 11:01:30.528, True, 2.020, 0.133516
2023/06/24 11:01:31.032, True, 1.991, 0.132830
2023/06/24 11:01:31.528, True, 1.686, 0.133059
2023/06/24 11:01:32.032, True, 1.987, 0.136263
2023/06/24 11:01:32.536, True, 1.992, 0.134356
2023/06/24 11:01:33.032, True, 2.020, 0.134813
2023/06/24 11:01:33.536, True, 1.991, 0.134585
2023/06/24 11:01:34.040, True, 1.987, 0.133059
2023/06/24 11:01:34.536, True, 2.021, 0.131914
2023/06/24 11:01:35.040, True, 1.991, 0.133593
2023/06/24 11:01:35.544, True, 1.656, 0.134279
2023/06/24 11:01:36.040, True, 2.022, 0.135958
2023/06/24 11:01:36.544, True, 1.989, 0.132677
2023/06/24 11:01:37.048, True, 1.989, 0.134890
2023/06/24 11:01:37.552, True, 1.990, 0.132677
2023/06/24 11:01:38.048, True, 1.687, 0.134432
2023/06/24 11:01:38.552, True, 1.987, 0.134279
2023/06/24 11:01:39.056, True, 1.990, 0.132830
2023/06/24 11:01:39.552, True, 2.022, 0.133593
2023/06/24 11:01:40.056, True, 1.658, 0.134127
2023/06/24 11:01:40.560, True, 1.990, 0.134432
2023/06/24 11:01:41.056, True, 2.022, 0.135805
2023/06/24 11:01:41.560, True, 1.989, 0.134813
2023/06/24 11:01:42.055, True, 1.688, 0.135195
2023/06/24 11:01:42.560, True, 1.986, 0.134966
2023/06/24 11:01:43.064, True, 1.990, 0.135042
2023/06/24 11:01:43.568, True, 1.990, 0.133059
2023/06/24 11:01:44.064, True, 2.022, 0.133364
2023/06/24 11:01:44.568, True, 1.990, 0.131151
2023/06/24 11:01:45.064, True, 2.022, 0.133593
2023/06/24 11:01:45.568, True, 1.990, 0.131762
2023/06/24 11:01:46.072, True, 1.990, 0.130694
2023/06/24 11:01:46.568, True, 2.021, 0.133440
2023/06/24 11:01:47.072, True, 1.660, 0.133440
2023/06/24 11:01:47.576, True, 1.987, 0.134356
2023/06/24 11:01:48.072, True, 2.024, 0.131075
2023/06/24 11:01:48.576, True, 1.988, 0.133745
2023/06/24 11:01:49.080, True, 1.993, 0.132296
2023/06/24 11:01:49.576, True, 1.683, 0.132219
2023/06/24 11:01:50.080, True, 1.989, 0.131838
2023/06/24 11:01:50.584, True, 2.321, 0.133135
2023/06/24 11:01:51.080, True, 2.021, 0.133440
2023/06/24 11:01:51.584, True, 1.658, 0.133593
2023/06/24 11:01:52.088, True, 1.990, 0.132219
2023/06/24 11:01:52.584, True, 2.361, 0.131533
2023/06/24 11:01:53.088, True, 1.658, 0.131838
2023/06/24 11:01:53.591, True, 1.988, 0.133593
2023/06/24 11:01:54.088, True, 2.022, 0.132753
2023/06/24 11:01:54.592, True, 1.989, 0.135042
2023/06/24 11:01:55.096, True, 1.990, 0.132601
2023/06/24 11:01:55.592, True, 2.022, 0.132525
2023/06/24 11:01:56.096, True, 1.990, 0.135348
2023/06/24 11:01:56.600, True, 1.990, 0.132219
2023/06/24 11:01:57.096, True, 2.022, 0.134279
2023/06/24 11:01:57.600, True, 1.990, 0.130846
2023/06/24 11:01:58.104, True, 1.658, 0.135271
2023/06/24 11:01:58.600, True, 2.025, 0.132677
2023/06/24 11:01:59.104, True, 1.986, 0.133822
2023/06/24 11:01:59.608, True, 1.990, 0.132372
2023/06/24 11:02:00.104, True, 2.022, 0.132372
2023/06/24 11:02:00.608, True, 1.658, 0.132982
2023/06/24 11:02:01.112, True, 1.990, 0.132143
2023/06/24 11:02:01.608, True, 2.022, 0.132830
2023/06/24 11:02:02.112, True, 1.990, 0.131380
2023/06/24 11:02:02.616, True, 1.989, 0.131533
2023/06/24 11:02:03.112, True, 2.026, 0.133516
2023/06/24 11:02:03.616, True, 1.986, 0.132372
2023/06/24 11:02:04.120, True, 1.990, 0.132677
2023/06/24 11:02:04.615, True, 2.026, 0.133364
2023/06/24 11:02:05.120, True, 1.989, 0.131609
2023/06/24 11:02:05.624, True, 1.987, 0.133822
2023/06/24 11:02:06.120, True, 2.022, 0.131838
2023/06/24 11:02:06.624, True, 1.990, 0.133288
2023/06/24 11:02:07.128, True, 1.990, 0.133364
2023/06/24 11:02:07.624, True, 1.686, 0.132906
2023/06/24 11:02:08.128, True, 1.988, 0.132296
2023/06/24 11:02:08.632, True, 1.990, 0.131075
2023/06/24 11:02:09.128, True, 2.022, 0.133745
2023/06/24 11:02:09.632, True, 1.989, 0.132067
2023/06/24 11:02:10.136, True, 1.990, 0.131228
2023/06/24 11:02:10.632, True, 1.685, 0.130007
2023/06/24 11:02:11.135, True, 1.990, 0.132372
2023/06/24 11:02:11.632, True, 2.022, 0.132830
2023/06/24 11:02:12.136, True, 1.991, 0.132601
2023/06/24 11:02:12.640, True, 1.989, 0.133669
2023/06/24 11:02:13.136, True, 2.022, 0.132296
2023/06/24 11:02:13.640, True, 1.990, 0.133288
2023/06/24 11:02:14.144, True, 1.990, 0.131762
2023/06/24 11:02:14.640, True, 1.685, 0.132601
2023/06/24 11:02:15.144, True, 1.990, 0.132296
2023/06/24 11:02:15.648, True, 1.989, 0.132982
2023/06/24 11:02:16.144, True, 2.022, 0.131838
2023/06/24 11:02:16.648, True, 1.993, 0.133135
2023/06/24 11:02:17.152, True, 1.986, 0.129854
2023/06/24 11:02:17.647, True, 2.022, 0.129320
2023/06/24 11:02:18.152, True, 1.990, 0.130083
2023/06/24 11:02:18.656, True, 1.990, 0.131304
2023/06/24 11:02:19.152, True, 1.687, 0.130617
2023/06/24 11:02:19.656, True, 1.986, 0.130541
2023/06/24 11:02:20.160, True, 1.990, 0.132067
2023/06/24 11:02:20.656, True, 1.685, 0.130999
2023/06/24 11:02:21.160, True, 1.990, 0.133211
2023/06/24 11:02:21.664, True, 1.989, 0.132982
2023/06/24 11:02:22.160, True, 2.021, 0.131456
2023/06/24 11:02:22.664, True, 1.990, 0.130694
2023/06/24 11:02:23.168, True, 1.990, 0.129168
2023/06/24 11:02:23.664, True, 1.685, 0.131456
2023/06/24 11:02:24.168, True, 1.989, 0.128634
2023/06/24 11:02:24.664, True, 2.022, 0.130617
2023/06/24 11:02:25.168, True, 1.658, 0.129702
2023/06/24 11:02:25.672, True, 1.990, 0.130541
2023/06/24 11:02:26.168, True, 2.022, 0.131609
2023/06/24 11:02:26.672, True, 1.990, 0.133211
2023/06/24 11:02:27.176, True, 1.990, 0.131762
2023/06/24 11:02:27.672, True, 1.685, 0.132219
2023/06/24 11:02:28.176, True, 1.990, 0.131991
2023/06/24 11:02:28.680, True, 1.990, 0.130770
2023/06/24 11:02:29.176, True, 2.022, 0.129244
2023/06/24 11:02:29.680, True, 1.990, 0.129091
2023/06/24 11:02:30.183, True, 1.990, 0.128176
2023/06/24 11:02:30.680, True, 1.685, 0.129244
2023/06/24 11:02:31.184, True, 1.991, 0.130922
2023/06/24 11:02:31.688, True, 1.991, 0.130388
2023/06/24 11:02:32.184, True, 2.019, 0.130999
2023/06/24 11:02:32.688, True, 1.990, 0.129473
2023/06/24 11:02:33.192, True, 1.660, 0.131304
2023/06/24 11:02:33.688, True, 2.020, 0.130312
2023/06/24 11:02:34.192, True, 1.990, 0.130770
2023/06/24 11:02:34.695, True, 1.989, 0.130083
2023/06/24 11:02:35.191, True, 2.025, 0.130236
2023/06/24 11:02:35.696, True, 1.656, 0.130541
2023/06/24 11:02:36.200, True, 1.989, 0.130159
2023/06/24 11:02:36.696, True, 2.022, 0.131762
2023/06/24 11:02:37.200, True, 1.991, 0.130388
2023/06/24 11:02:37.703, True, 1.989, 0.129015
2023/06/24 11:02:38.199, True, 2.022, 0.130846
2023/06/24 11:02:38.704, True, 1.659, 0.130770
2023/06/24 11:02:39.207, True, 1.988, 0.130617
2023/06/24 11:02:39.703, True, 2.022, 0.130694
2023/06/24 11:02:40.208, True, 1.992, 0.130770
2023/06/24 11:02:40.711, True, 1.987, 0.129625
2023/06/24 11:02:41.208, True, 2.022, 0.130770
2023/06/24 11:02:41.712, True, 1.991, 0.132067
2023/06/24 11:02:42.208, True, 2.022, 0.129320
2023/06/24 11:02:42.711, True, 1.988, 0.129931
2023/06/24 11:02:43.216, True, 1.991, 0.131075
2023/06/24 11:02:43.711, True, 2.019, 0.129244
2023/06/24 11:02:44.215, True, 1.989, 0.128634
2023/06/24 11:02:44.720, True, 1.992, 0.127642
2023/06/24 11:02:45.216, True, 2.019, 0.128557
2023/06/24 11:02:45.720, True, 1.989, 0.130312
2023/06/24 11:02:46.216, True, 2.022, 0.131304
2023/06/24 11:02:46.720, True, 1.658, 0.128405
2023/06/24 11:02:47.224, True, 1.990, 0.128634
2023/06/24 11:02:47.720, True, 2.022, 0.130999
2023/06/24 11:02:48.223, True, 1.990, 0.130388
2023/06/24 11:02:48.727, True, 1.658, 0.129244
2023/06/24 11:02:49.223, True, 2.026, 0.129854
2023/06/24 11:02:49.728, True, 1.986, 0.129091
2023/06/24 11:02:50.232, True, 1.990, 0.128481
2023/06/24 11:02:50.736, True, 1.990, 0.126421
2023/06/24 11:02:51.232, True, 2.022, 0.131914
2023/06/24 11:02:51.736, True, 1.990, 0.127642
2023/06/24 11:02:52.232, True, 2.022, 0.129549
2023/06/24 11:02:52.735, True, 1.990, 0.129168
2023/06/24 11:02:53.239, True, 1.659, 0.128557
2023/06/24 11:02:53.736, True, 2.021, 0.127260
2023/06/24 11:02:54.240, True, 1.990, 0.130007
2023/06/24 11:02:54.743, True, 1.989, 0.129625
2023/06/24 11:02:55.247, True, 1.990, 0.130007
2023/06/24 11:02:55.744, True, 2.022, 0.128405
2023/06/24 11:02:56.247, True, 1.989, 0.129397
2023/06/24 11:02:56.751, True, 1.658, 0.130312
2023/06/24 11:02:57.247, True, 2.022, 0.129015
2023/06/24 11:02:57.751, True, 1.990, 0.128099
2023/06/24 11:02:58.247, True, 2.022, 0.129091
2023/06/24 11:02:58.751, True, 1.659, 0.130770
2023/06/24 11:02:59.256, True, 1.988, 0.127489
2023/06/24 11:02:59.751, True, 1.685, 0.130617
2023/06/24 11:03:00.255, True, 1.990, 0.127947
2023/06/24 11:03:00.751, True, 2.022, 0.126268
2023/06/24 11:03:01.255, True, 1.989, 0.127489
2023/06/24 11:03:01.759, True, 1.990, 0.129168
2023/06/24 11:03:02.263, True, 1.990, 0.128481
2023/06/24 11:03:02.759, True, 1.685, 0.128481
2023/06/24 11:03:03.264, True, 1.993, 0.127794
2023/06/24 11:03:03.759, True, 2.019, 0.127260
2023/06/24 11:03:04.263, True, 1.990, 0.128099
2023/06/24 11:03:04.767, True, 1.993, 0.128328
2023/06/24 11:03:05.271, True, 1.655, 0.129625
2023/06/24 11:03:05.767, True, 2.022, 0.129244
2023/06/24 11:03:06.271, True, 1.993, 0.129168
2023/06/24 11:03:06.776, True, 1.990, 0.127184
2023/06/24 11:03:07.271, True, 2.021, 0.128099
2023/06/24 11:03:07.775, True, 1.655, 0.127260
2023/06/24 11:03:08.279, True, 1.993, 0.128481
2023/06/24 11:03:08.775, True, 2.022, 0.128786
2023/06/24 11:03:09.279, True, 1.986, 0.130999
2023/06/24 11:03:09.783, True, 1.990, 0.126268
2023/06/24 11:03:10.279, True, 2.024, 0.128786
2023/06/24 11:03:10.783, True, 1.656, 0.129320
2023/06/24 11:03:11.287, True, 2.324, 0.127794
2023/06/24 11:03:11.791, True, 1.656, 0.128252
2023/06/24 11:03:12.287, True, 2.022, 0.128634
2023/06/24 11:03:12.791, True, 1.989, 0.127260
2023/06/24 11:03:13.295, True, 1.989, 0.128862
2023/06/24 11:03:13.799, True, 1.991, 0.129778
2023/06/24 11:03:14.295, True, 2.021, 0.127871
2023/06/24 11:03:14.799, True, 1.990, 0.128862
2023/06/24 11:03:15.303, True, 1.990, 0.132296
2023/06/24 11:03:15.799, True, 1.685, 0.128481
2023/06/24 11:03:16.303, True, 1.990, 0.129625
2023/06/24 11:03:16.799, True, 2.023, 0.130770
2023/06/24 11:03:17.303, True, 1.990, 0.128557
2023/06/24 11:03:17.807, True, 1.657, 0.125429
2023/06/24 11:03:18.303, True, 2.022, 0.128557
2023/06/24 11:03:18.807, True, 1.990, 0.128862
2023/06/24 11:03:19.311, True, 2.321, 0.126726
2023/06/24 11:03:19.806, True, 1.685, 0.127031
2023/06/24 11:03:20.311, True, 1.991, 0.128786
2023/06/24 11:03:20.815, True, 1.988, 0.127489
2023/06/24 11:03:21.311, True, 2.022, 0.128557
2023/06/24 11:03:21.815, True, 1.990, 0.128176
2023/06/24 11:03:22.319, True, 1.990, 0.128481
2023/06/24 11:03:22.815, True, 1.684, 0.128481
2023/06/24 11:03:23.319, True, 1.990, 0.128634
2023/06/24 11:03:23.815, True, 2.022, 0.130159
2023/06/24 11:03:24.319, True, 1.993, 0.125658
2023/06/24 11:03:24.823, True, 1.987, 0.128710
2023/06/24 11:03:25.319, True, 2.022, 0.126574
2023/06/24 11:03:25.823, True, 1.989, 0.126955
2023/06/24 11:03:26.326, True, 1.990, 0.127642
2023/06/24 11:03:26.823, True, 1.684, 0.130083
2023/06/24 11:03:27.327, True, 1.990, 0.127489
2023/06/24 11:03:27.831, True, 1.990, 0.128481
2023/06/24 11:03:28.327, True, 2.022, 0.126268
2023/06/24 11:03:28.831, True, 1.990, 0.127642
2023/06/24 11:03:29.335, True, 1.990, 0.127794
2023/06/24 11:03:29.831, True, 2.022, 0.127031
2023/06/24 11:03:30.335, True, 1.990, 0.126268
2023/06/24 11:03:30.839, True, 1.660, 0.130465
2023/06/24 11:03:31.335, True, 2.019, 0.126879
2023/06/24 11:03:31.838, True, 1.990, 0.128023
2023/06/24 11:03:32.343, True, 1.990, 0.128023
2023/06/24 11:03:32.839, True, 2.023, 0.127337
2023/06/24 11:03:33.343, True, 1.989, 0.127947
2023/06/24 11:03:33.847, True, 1.658, 0.126497
2023/06/24 11:03:34.343, True, 2.022, 0.127184
2023/06/24 11:03:34.847, True, 1.990, 0.127794
2023/06/24 11:03:35.351, True, 1.658, 0.127260
2023/06/24 11:03:35.847, True, 2.022, 0.127794
2023/06/24 11:03:36.351, True, 1.658, 0.128405
2023/06/24 11:03:36.855, True, 1.989, 0.127489
2023/06/24 11:03:37.351, True, 2.022, 0.127718
2023/06/24 11:03:37.854, True, 1.990, 0.128023
2023/06/24 11:03:38.359, True, 1.990, 0.126345
2023/06/24 11:03:38.855, True, 1.686, 0.128099
2023/06/24 11:03:39.359, True, 2.321, 0.127184
2023/06/24 11:03:39.863, True, 1.992, 0.127947
2023/06/24 11:03:40.359, True, 2.019, 0.127108
2023/06/24 11:03:40.862, True, 1.658, 0.127718
2023/06/24 11:03:41.367, True, 1.989, 0.128710
2023/06/24 11:03:41.863, True, 2.022, 0.128862
2023/06/24 11:03:42.367, True, 1.990, 0.126497
2023/06/24 11:03:42.871, True, 1.657, 0.127260
2023/06/24 11:03:43.367, True, 1.685, 0.129931
2023/06/24 11:03:43.871, True, 1.990, 0.127947
2023/06/24 11:03:44.367, True, 2.022, 0.127794
2023/06/24 11:03:44.871, True, 1.990, 0.128405
2023/06/24 11:03:45.375, True, 1.989, 0.128023
2023/06/24 11:03:45.871, True, 1.685, 0.128252
2023/06/24 11:03:46.375, True, 1.990, 0.128176
2023/06/24 11:03:46.879, True, 1.990, 0.126802
2023/06/24 11:03:47.375, True, 2.022, 0.127031
2023/06/24 11:03:47.879, True, 1.990, 0.127184
2023/06/24 11:03:48.383, True, 1.989, 0.127642
2023/06/24 11:03:48.879, True, 2.022, 0.126879
2023/06/24 11:03:49.383, True, 1.989, 0.125887
2023/06/24 11:03:49.887, True, 1.990, 0.126955
2023/06/24 11:03:50.383, True, 2.022, 0.126879
2023/06/24 11:03:50.887, True, 1.990, 0.128786
2023/06/24 11:03:51.390, True, 1.990, 0.126650
2023/06/24 11:03:51.887, True, 2.022, 0.126116
2023/06/24 11:03:52.391, True, 1.990, 0.125963
2023/06/24 11:03:52.895, True, 1.990, 0.127413
2023/06/24 11:03:53.391, True, 2.026, 0.125429
2023/06/24 11:03:53.895, True, 1.655, 0.126268
2023/06/24 11:03:54.399, True, 1.990, 0.127718
2023/06/24 11:03:54.895, True, 2.022, 0.127565
2023/06/24 11:03:55.399, True, 1.658, 0.128405
2023/06/24 11:03:55.902, True, 1.990, 0.125124
2023/06/24 11:03:56.399, True, 2.022, 0.125658
2023/06/24 11:03:56.903, True, 1.658, 0.126116
2023/06/24 11:03:57.407, True, 1.990, 0.127031
2023/06/24 11:03:57.902, True, 2.022, 0.128328
2023/06/24 11:03:58.407, True, 1.990, 0.129168
2023/06/24 11:03:58.903, True, 2.022, 0.127489
2023/06/24 11:03:59.407, True, 1.990, 0.128328
2023/06/24 11:03:59.911, True, 1.990, 0.126574
2023/06/24 11:04:00.415, True, 1.990, 0.128176
2023/06/24 11:04:00.911, True, 2.021, 0.126574
2023/06/24 11:04:01.415, True, 1.990, 0.124895
2023/06/24 11:04:01.919, True, 1.658, 0.126345
2023/06/24 11:04:02.415, True, 2.022, 0.127794
2023/06/24 11:04:02.919, True, 1.990, 0.127794
2023/06/24 11:04:03.423, True, 1.658, 0.127031
2023/06/24 11:04:03.919, True, 2.024, 0.127565
2023/06/24 11:04:04.423, True, 1.988, 0.126879
2023/06/24 11:04:04.927, True, 1.993, 0.126879
2023/06/24 11:04:05.423, True, 1.682, 0.125277
2023/06/24 11:04:05.927, True, 1.990, 0.125200
2023/06/24 11:04:06.431, True, 1.990, 0.126192
2023/06/24 11:04:06.926, True, 2.023, 0.126726
2023/06/24 11:04:07.431, True, 1.987, 0.126040
2023/06/24 11:04:07.935, True, 1.991, 0.127413
2023/06/24 11:04:08.431, True, 2.021, 0.126802
2023/06/24 11:04:08.935, True, 1.658, 0.127718
2023/06/24 11:04:09.438, True, 1.990, 0.129473
2023/06/24 11:04:09.935, True, 2.024, 0.128557
2023/06/24 11:04:10.439, True, 1.988, 0.125505
2023/06/24 11:04:10.943, True, 1.990, 0.130312
2023/06/24 11:04:11.439, True, 2.022, 0.126268
2023/06/24 11:04:11.943, True, 1.990, 0.128557
2023/06/24 11:04:12.439, True, 2.022, 0.126497